Weather in Samus'

Russia / Tomsk District     56°44′45″N   84°41′53″E
temp.,
°C
wind,
m/s
gust,
m/s
humid.,
%
clouds,
%
prec.,
mm/h
press.,
hPa
HPBL,
m
8 march, mon
mon801:00−13ssw239517 0.0 102059
04:00−12sse369189 0.0 1019168
07:00−10sse5118495 0.0 1015328
10:00−6s61490100 0.0 1011563
13:00−2s71489100 0.1 1007735
16:00+1ssw71480100 0.0 10021114
19:00−1ssw61484100 0.0 10011085
22:00−2sw61390100 0.6 10041019
9 march, tue
tue901:00−8w41092100 1.1 1009749
04:00−11wsw41192100 0.0 1014470
07:00−12wsw41193100 0.1 1017458
10:00−12sw51190100 0.0 1019545
13:00−9sw51083100 0.1 1020800
16:00−7ssw6118296 0.0 1020851
19:00−8ssw4128698 0.0 1020782
22:00−9ssw41288100 0.0 1019627
10 march, wed
wed1001:00−10ssw41289100 0.0 1018599
04:00−12ssw4129099 0.0 1016523
07:00−12ssw4139099 0.0 1016455
10:00−11sw4108788 0.0 1015483
13:00−8ssw478894 0.0 1015496
16:00−6ssw3587100 0.0 1015538
19:00−7sse2594100 0.0 1012134
22:00−7se3891100 0.0 1008259
11 march, thu
thu1101:00−3se31195100 0.1 1002600
04:000ssw51297100 3.1 996896
07:00+2sw61498100 3.4 994947
10:00−2sw81486100 0.5 9981294
13:00−5wsw71286100 0.8 10041082
16:00−4sw61086100 0.1 1007999
19:00−6sw51090100 0.3 1009975
22:00−7sw61287100 0.2 1011904
12 march, fri
fri1201:00−9sw51289100 0.2 1013925
04:00−10ssw41291100 0.1 1013663
07:00−10sse41194100 0.6 1009572
10:00−7sw51091100 1.2 1008965
13:00−9sw71184100 1.6 10111124
16:00−10sw61081100 0.2 10131209
19:00−13sw51088100 0.3 1014962
22:00−15wsw61085100 0.3 10171035